Imperial, NE

8:48 AM MST on February 26, 2017 (GMT -0700)
Imperial Municipal

Weather History for KIML - December, 2010

Change the Weather History Date:

Monday, December 27, 2010

  Actual Average Record
Temperature  
Mean Temperature 32 °F 27 °F  
Max Temperature 53 °F 40 °F 74 °F (1980)
Min Temperature 10 °F 15 °F -12 °F (1916)
Degree Days  
Heating Degree Days 33 38  
Month to date heating degree days 867 986  
Cooling Degree Days 0 0  
Month to date cooling degree days 0 0  
Year to date cooling degree days 1172 963  
Moisture  
Dew Point 15 °F    
Average Humidity 58    
Maximum Humidity 92    
Minimum Humidity 24    
Precipitation  
Precipitation 0.00 in 0.01 in 0.40 in (1927)
Sea Level Pressure  
Sea Level Pressure 30.10 in    
Wind  
Wind Speed 11 mph (NW)    
Max Wind Speed 29 mph    
Max Gust Speed 37 mph    
Visibility 10 miles    
Events      
T = Trace of Precipitation, MM = Missing Value Source: NWS Daily Summary

Daily Weather History Graph

Daily Weather History Graph

Search for Another Location

Airport or City:

Trip Planner

Search our weather history database for the weather conditions in past years. The results will help you decide how hot, cold, wet, or windy it might be!

Date:

Astronomy

Dec. 27, 2010 Rise Set
Actual Time 7:08 AM MST 4:26 PM MST
Civil Twilight 6:38 AM MST 4:57 PM MST
Nautical Twilight 6:03 AM MST 5:31 PM MST
Astronomical Twilight 5:30 AM MST 6:04 PM MST
Moon No Moon Rise 10:57 AM MST (12/27)
Length of Visible Light 10h 19m
Length of Day
9h 17m
Waning Gibbous, 55% of the Moon is Illuminated
Dec 27
Waning Gibbous
Dec 27
Last Quarter
Jan 4
New
Jan 12
First Quarter
Jan 19
Full

Hourly Weather History & Observations

Time (MST) Temp. Windchill Dew Point Humidity Pressure Visibility Wind Dir Wind Speed Gust Speed Precip Events Conditions
12:40 AM 12.2 °F 1.7 °F 10.4 °F 92% 29.96 in 8.0 mi South 6.9 mph - N/A   Scattered Clouds
12:53 AM 14.0 °F 2.9 °F 10.0 °F 84% 30.05 in 9.0 mi SSE 8.1 mph - N/A   Clear
1:53 AM 10.9 °F - 8.1 °F 88% 30.06 in 9.0 mi Calm Calm - N/A   Clear
2:53 AM 10.9 °F - 8.1 °F 88% 30.07 in 10.0 mi Calm Calm - N/A   Clear
3:53 AM 12.0 °F 4.1 °F 8.1 °F 84% 30.09 in 10.0 mi WSW 4.6 mph - N/A   Clear
4:53 AM 14.0 °F - 10.0 °F 84% 30.07 in 10.0 mi Calm Calm - N/A   Clear
5:53 AM 15.1 °F 9.4 °F 10.9 °F 84% 30.09 in 10.0 mi SSW 3.5 mph - N/A   Clear
6:53 AM 14.0 °F 8.2 °F 10.0 °F 84% 30.11 in 10.0 mi West 3.5 mph - N/A   Clear
7:53 AM 17.1 °F 10.0 °F 12.9 °F 84% 30.12 in 9.0 mi NW 4.6 mph - N/A   Clear
8:53 AM 33.1 °F 23.4 °F 25.0 °F 72% 30.11 in 10.0 mi NW 13.8 mph - N/A   Clear
9:53 AM 43.0 °F 33.8 °F 21.9 °F 43% 30.11 in 10.0 mi NW 23.0 mph 32.2 mph N/A   Clear
10:53 AM 48.0 °F - 19.9 °F 33% 30.09 in 10.0 mi NNW 26.5 mph 34.5 mph N/A   Clear
11:53 AM 51.1 °F - 18.0 °F 27% 30.07 in 10.0 mi NNW 21.9 mph 29.9 mph N/A   Clear
12:53 PM 52.0 °F - 19.9 °F 28% 30.05 in 10.0 mi NNW 19.6 mph 24.2 mph N/A   Clear
1:53 PM 53.1 °F - 19.0 °F 26% 30.06 in 10.0 mi NNW 16.1 mph - N/A   Clear
2:53 PM 50.0 °F - 16.0 °F 26% 30.08 in 10.0 mi NNW 17.3 mph - N/A   Clear
3:53 PM 46.0 °F 41.4 °F 18.0 °F 33% 30.10 in 10.0 mi North 9.2 mph - N/A   Clear
4:53 PM 39.9 °F 33.9 °F 15.1 °F 36% 30.13 in 10.0 mi NW 9.2 mph - N/A   Clear
5:53 PM 39.0 °F 32.8 °F 15.1 °F 38% 30.14 in 10.0 mi NW 9.2 mph - N/A   Clear
6:53 PM 37.0 °F 28.1 °F 15.1 °F 41% 30.17 in 10.0 mi NW 15.0 mph - N/A   Clear
7:53 PM 36.0 °F 27.5 °F 16.0 °F 44% 30.18 in 10.0 mi NW 12.7 mph - N/A   Clear
8:53 PM 32.0 °F 23.0 °F 16.0 °F 52% 30.17 in 10.0 mi NW 11.5 mph - N/A   Clear
9:53 PM 28.9 °F 20.4 °F 15.1 °F 56% 30.16 in 10.0 mi NW 9.2 mph - N/A   Clear
10:53 PM 28.0 °F 19.3 °F 15.1 °F 58% 30.15 in 10.0 mi WNW 9.2 mph - N/A   Clear
11:53 PM 21.0 °F 14.6 °F 12.9 °F 71% 30.15 in 10.0 mi NW 4.6 mph - N/A   Clear